Regional Weather Roundup
Issued by NWS Nashville, TN

Home | Current Version | Previous Version | Text Only | Print | Product List | Glossary On
Versions: 1 2 3 4 5 6 7 8 9 10 11 12 13 14 15 16 17 18 19 20 21 22 23 24 25 26 27 28 29 30 31 32 33 34 35 36 37 38 39 40 41 42 43 44 45 46 47 48 49 50
000
ASUS44 KOHX 281410
RWROHX
MIDDLE TENNESSEE HOURLY WEATHER ROUNDUP
NATIONAL WEATHER SERVICE NASHVILLE TN
900 AM CDT SAT MAY 28 2016

NOTE: "FAIR" INDICATES FEW OR NO CLOUDS BELOW 12,000 FEET WITH
NO SIGNIFICANT WEATHER AND/OR OBSTRUCTIONS TO VISIBILITY.

* THESE REPORTS ARE NOT UNDER NWS QUALITY CONTROL AND MAY NOT
  REPORT WEATHER SUCH AS PRECIPITATION AND FOG.


TNZ005>011-023>034-057-059-062>066-078-080-281500
...NORTHERN MIDDLE TENNESSEE...

CITY           SKY/WX    TMP DP  RH WIND       PRES   REMARKS
CLARKSVILLE    CLOUDY    77  67  71 S7        30.06R
CROSSVILLE     CLOUDY    72  61  68 VRB6      30.19R
DICKSON        CLOUDY    75  66  73 S8        30.07R
LEBANON        CLOUDY    74  63  68 S5        30.09R
NASHVILLE      CLOUDY    76  62  62 S6        30.10R
SMYRNA         CLOUDY    75  65  71 S7        30.11R
SPARTA         SUNNY     75  64  69 S8        30.13S
$$
TNZ056-058-060-061-075>077-079-093>097-281500
...SOUTHERN MIDDLE TENNESSEE...

CITY           SKY/WX    TMP DP  RH WIND       PRES   REMARKS
COLUMBIA       SUNNY    N/A N/A N/A SE5       30.08R
FAYETTEVILLE   MOSUNNY   72  63  73 SE7       30.13R
LEWISBURG      CLOUDY    76  63  64 S7        30.10R
MCMINNVILLE    SUNNY     73  63  68 CALM      30.14S
SHELBYVILLE    SUNNY     73  64  73 SE7       30.13R
TULLAHOMA      SUNNY     70  66  88 SE3       30.15R
WINCHESTER     SUNNY     72  63  73 SE6       30.14R
$$


...KEY TO REMARKS...
VSB - VISIBILITY IN MILES
WCI - WIND CHILL INDEX
HX  - HEAT INDEX




USA.gov is the U.S. government's official web portal to all federal, state and local government web resources and services.